Location: Berg
(48.4333°N, 13.9167°E)
Time: 15:43:44
(UTC+00:00)

ATLAS CENTAUR R/B - Pass Details

Date: 18 September 2020
Orbit: 479 x 667 km, 64.7° (Epoch: 12 October)

Event Time Altitude Azimuth Distance (km) Brightness Sun altitude
Rises 17:48:06 0° 258° (WSW) 2,669 6.3 -7.1°
Reaches altitude 10° 17:50:46 10° 275° (W) 1,748 5.6 -7.6°
Maximum altitude 17:53:43 20° 325° (NW) 1,204 3.7 -8.0°
Drops below altitude 10° 17:56:36 10° 15° (NNE) 1,696 3.8 -8.5°
Sets 17:59:09 0° 32° (NNE) 2,563 4.5 -8.9°
